Location: Del Amo
(33.8464°N, 118.2104°W)
Time: 15:04:04
(UTC+00:00)

Daily predictions for brighter satellites

Satellite Brightness Start Highest point End
(mag) Time Altitude Azimuth Time Altitude Azimuth Time Altitude Azimuth
Cosmos-2242 3.1 12:03:11 10° N 12:07:30 87° E 12:11:47 10° S
ATLAS 5 CENTAUR R/B 0.9 12:04:47 10° SW 12:08:00 64° WNW 12:11:21 10° NNE
Cosmos 1939 Rocket 4.1 12:05:56 10° NNE 12:09:43 42° E 12:13:26 10° S
Cosmos 1515 3.9 12:06:23 10° N 12:09:51 66° E 12:13:18 10° SSE
